Precipitable_Water
0.46 0.44 0.45 0.44 0.42 0.41 0.41 0.41 0.42 0.42 0.42 0.41 0.41 0.42 0.43 0.45 0.46 0.46 0.49 0.48 0.49 0.49 0.51 0.52 0.58 0.62 0.66 0.68 0.70 0.69 0.68 0.55 0.44 0.34 0.29 0.23 0.32 0.34 0.43 0.52 0.47 0.47 0.68 0.75 0.70 0.62 0.55 0.59 0.62 0.87 1.09 1.24 1.20 1.25 1.49 1.52 1.61 1.44 1.18 1.07 0.95 1.02 0.98 1.09 1.08 1.15 1.19 1.14 1.22 1.32 1.37 1.34 1.23 1.38 1.44 1.59 1.53 1.40 1.37 1.36 1.44 1.53 1.50 1.53 1.61 1.66 1.64 1.65
0.43 0.43 0.43 0.42 0.42 0.40 0.41 0.42 0.41 0.40 0.41 0.41 0.41 0.42 0.42 0.42 0.42 0.44 0.45 0.48 0.48 0.49 0.50 0.52 0.54 0.60 0.66 0.69 0.71 0.71 0.66 0.55 0.41 0.37 0.29 0.32 0.36 0.36 0.35 0.44 0.57 0.45 0.55 0.58 0.53 0.51 0.46 0.48 0.54 0.76 0.94 0.95 1.28 1.12 1.44 1.29 1.53 1.21 1.13 1.05 0.89 1.03 1.06 1.20 1.18 1.22 1.15 1.15 1.23 1.31 1.37 1.35 1.30 1.37 1.47 1.38 1.31 1.30 1.24 1.30 1.34 1.32 1.42 1.55 1.59 1.61 1.58 1.60
0.43 0.41 0.40 0.40 0.38 0.38 0.39 0.38 0.38 0.39 0.38 0.38 0.40 0.41 0.40 0.40 0.40 0.39 0.42 0.44 0.47 0.48 0.50 0.52 0.53 0.57 0.65 0.71 0.71 0.71 0.65 0.50 0.44 0.32 0.32 0.38 0.40 0.38 0.36 0.36 0.50 0.56 0.42 0.40 0.50 0.47 0.42 0.40 0.49 0.69 0.83 0.83 1.05 1.00 1.26 1.20 1.32 1.26 1.09 0.93 0.95 1.10 1.12 1.19 1.24 1.22 1.25 1.28 1.24 1.26 1.31 1.33 1.39 1.44 1.53 1.33 1.27 1.32 1.20 1.16 1.24 1.22 1.24 1.37 1.46 1.52 1.54 1.55
0.40 0.39 0.39 0.37 0.36 0.37 0.37 0.36 0.36 0.35 0.36 0.38 0.38 0.39 0.39 0.39 0.37 0.39 0.39 0.42 0.44 0.47 0.49 0.51 0.54 0.56 0.65 0.70 0.74 0.73 0.62 0.48 0.33 0.33 0.39 0.40 0.42 0.39 0.36 0.35 0.40 0.54 0.44 0.43 0.50 0.47 0.47 0.46 0.47 0.64 0.74 0.73 0.83 1.06 0.98 1.16 1.04 1.19 1.07 0.92 0.97 1.10 1.07 1.15 1.26 1.25 1.28 1.29 1.25 1.25 1.29 1.26 1.37 1.41 1.43 1.33 1.26 1.28 1.32 1.29 1.20 1.19 1.22 1.31 1.41 1.44 1.48 1.48
0.40 0.40 0.39 0.36 0.37 0.37 0.35 0.34 0.33 0.35 0.36 0.36 0.37 0.38 0.38 0.35 0.36 0.36 0.39 0.41 0.43 0.45 0.47 0.50 0.54 0.59 0.64 0.70 0.70 0.74 0.53 0.32 0.29 0.44 0.47 0.47 0.52 0.42 0.37 0.35 0.39 0.48 0.44 0.42 0.47 0.52 0.51 0.47 0.49 0.57 0.66 0.58 0.72 0.86 0.85 1.08 1.14 1.13 0.93 1.00 1.04 1.10 1.04 1.18 1.25 1.23 1.26 1.29 1.28 1.27 1.21 1.18 1.38 1.35 1.32 1.33 1.17 1.15 1.30 1.38 1.32 1.30 1.28 1.30 1.34 1.38 1.43 1.41
0.41 0.40 0.38 0.37 0.36 0.36 0.34 0.34 0.34 0.33 0.34 0.33 0.35 0.36 0.36 0.36 0.36 0.39 0.40 0.40 0.40 0.42 0.45 0.48 0.53 0.60 0.67 0.67 0.71 0.68 0.49 0.18 0.42 0.41 0.56 0.48 0.47 0.46 0.39 0.38 0.44 0.46 0.46 0.41 0.36 0.40 0.50 0.50 0.48 0.49 0.53 0.54 0.60 0.67 0.82 0.96 1.14 0.84 0.96 1.02 1.06 1.10 1.06 1.20 1.24 1.21 1.24 1.22 1.21 1.20 1.27 1.30 1.23 1.22 1.32 1.31 1.24 1.33 1.48 1.49 1.40 1.33 1.29 1.34 1.41 1.38 1.33 1.35
0.38 0.38 0.37 0.36 0.36 0.35 0.34 0.33 0.33 0.33 0.32 0.33 0.33 0.34 0.35 0.36 0.37 0.37 0.40 0.40 0.40 0.41 0.43 0.46 0.51 0.63 0.65 0.66 0.64 0.59 0.44 0.42 0.47 0.51 0.55 0.55 0.50 0.46 0.40 0.41 0.48 0.42 0.41 0.34 0.34 0.35 0.44 0.48 0.52 0.49 0.52 0.53 0.66 0.69 0.82 0.93 1.05 0.94 0.82 0.96 0.97 1.06 1.05 1.19 1.19 1.21 1.20 1.21 1.17 1.27 1.33 1.20 1.19 1.11 1.31 1.25 1.33 1.39 1.51 1.55 1.48 1.38 1.37 1.38 1.34 1.34 1.30 1.31
0.39 0.37 0.36 0.35 0.35 0.33 0.34 0.33 0.32 0.32 0.31 0.32 0.32 0.32 0.33 0.34 0.37 0.39 0.41 0.41 0.41 0.41 0.43 0.44 0.49 0.58 0.64 0.58 0.47 0.42 0.43 0.40 0.45 0.54 0.51 0.56 0.53 0.52 0.45 0.44 0.43 0.38 0.35 0.29 0.27 0.29 0.37 0.44 0.49 0.59 0.53 0.50 0.58 0.65 0.81 0.86 0.95 0.84 0.80 0.91 0.96 1.03 1.06 1.15 1.18 1.17 1.19 1.21 1.26 1.26 1.22 1.19 1.22 1.18 1.26 1.21 1.32 1.41 1.47 1.53 1.50 1.38 1.31 1.29 1.29 1.30 1.33 1.34
0.37 0.38 0.36 0.36 0.34 0.34 0.32 0.32 0.31 0.30 0.31 0.31 0.31 0.31 0.32 0.34 0.37 0.39 0.40 0.42 0.42 0.43 0.43 0.44 0.47 0.59 0.65 0.55 0.41 0.36 0.38 0.51 0.54 0.55 0.51 0.50 0.52 0.54 0.45 0.40 0.43 0.33 0.30 0.30 0.27 0.25 0.33 0.41 0.47 0.59 0.51 0.55 0.66 0.62 0.78 0.78 0.74 0.85 0.82 0.88 0.94 0.95 1.03 1.11 1.11 1.12 1.13 1.17 1.20 1.15 1.12 1.21 1.21 1.26 1.12 1.24 1.33 1.42 1.47 1.49 1.46 1.37 1.23 1.19 1.22 1.27 1.30 1.32
0.37 0.37 0.36 0.35 0.34 0.32 0.32 0.31 0.30 0.30 0.29 0.29 0.30 0.31 0.34 0.36 0.38 0.40 0.41 0.42 0.45 0.46 0.44 0.45 0.51 0.56 0.51 0.42 0.40 0.26 0.46 0.56 0.58 0.58 0.53 0.54 0.52 0.49 0.43 0.37 0.38 0.33 0.30 0.29 0.27 0.26 0.28 0.37 0.42 0.57 0.61 0.60 0.72 0.64 0.79 0.78 0.70 0.87 0.86 0.87 0.86 0.92 0.99 1.08 1.04 1.07 1.11 1.12 1.18 1.11 1.11 1.17 1.22 1.14 1.02 1.24 1.37 1.43 1.41 1.42 1.47 1.34 1.19 1.18 1.20 1.24 1.30 1.32
0.37 0.35 0.35 0.34 0.32 0.32 0.30 0.30 0.30 0.28 0.28 0.28 0.28 0.31 0.34 0.36 0.39 0.41 0.42 0.43 0.46 0.47 0.48 0.48 0.55 0.52 0.38 0.41 0.25 0.21 0.52 0.56 0.60 0.60 0.59 0.56 0.47 0.41 0.40 0.40 0.36 0.32 0.29 0.28 0.25 0.25 0.26 0.34 0.42 0.53 0.58 0.52 0.68 0.66 0.74 0.77 0.90 0.90 0.88 0.86 0.85 0.90 0.95 1.03 1.05 1.06 1.09 1.07 1.16 1.14 1.09 1.13 1.18 1.16 1.06 1.21 1.37 1.43 1.36 1.37 1.40 1.36 1.20 1.17 1.18 1.20 1.29 1.32
0.36 0.35 0.34 0.33 0.32 0.31 0.30 0.31 0.29 0.28 0.27 0.27 0.29 0.32 0.34 0.35 0.37 0.39 0.40 0.43 0.47 0.48 0.49 0.54 0.56 0.52 0.43 0.33 0.26 0.29 0.48 0.57 0.62 0.58 0.59 0.68 0.49 0.39 0.39 0.39 0.38 0.32 0.30 0.25 0.25 0.25 0.24 0.31 0.43 0.46 0.44 0.66 0.56 0.70 0.70 0.83 0.86 0.87 0.87 0.70 0.72 0.78 0.83 0.95 0.97 1.01 1.07 1.06 1.15 1.16 1.08 1.01 1.05 1.01 1.12 1.25 1.35 1.36 1.35 1.34 1.33 1.29 1.21 1.17 1.18 1.22 1.26 1.28
0.37 0.35 0.34 0.33 0.32 0.30 0.30 0.30 0.29 0.27 0.27 0.27 0.30 0.32 0.33 0.33 0.32 0.37 0.39 0.42 0.48 0.49 0.53 0.58 0.58 0.52 0.36 0.18 0.21 0.30 0.45 0.50 0.51 0.50 0.54 0.59 0.66 0.61 0.50 0.41 0.35 0.35 0.33 0.28 0.26 0.26 0.23 0.31 0.46 0.42 0.52 0.57 0.65 0.57 0.70 0.79 0.79 0.84 0.81 0.72 0.65 0.64 0.66 0.86 0.99 1.02 1.03 1.08 1.17 1.16 0.80 0.86 0.96 1.05 1.18 1.27 1.30 1.35 1.32 1.29 1.27 1.22 1.19 1.16 1.19 1.21 1.24 1.32
0.37 0.35 0.34 0.33 0.31 0.30 0.30 0.29 0.28 0.27 0.26 0.29 0.33 0.33 0.33 0.31 0.30 0.34 0.39 0.46 0.54 0.58 0.65 0.65 0.59 0.47 0.34 0.19 0.21 0.27 0.40 0.47 0.52 0.53 0.54 0.63 0.59 0.54 0.55 0.48 0.39 0.36 0.36 0.31 0.31 0.32 0.25 0.38 0.51 0.48 0.59 0.51 0.51 0.75 0.70 0.69 0.73 0.65 0.70 0.69 0.57 0.53 0.52 0.76 0.88 0.96 0.93 1.08 1.12 1.12 0.78 0.84 0.97 1.02 1.21 1.27 1.30 1.26 1.21 1.27 1.25 1.20 1.16 1.15 1.17 1.20 1.23 1.26
0.38 0.36 0.34 0.33 0.32 0.31 0.30 0.29 0.28 0.27 0.27 0.31 0.34 0.33 0.33 0.30 0.28 0.34 0.47 0.56 0.54 0.60 0.64 0.71 0.60 0.41 0.25 0.22 0.35 0.30 0.40 0.53 0.51 0.53 0.59 0.59 0.58 0.52 0.49 0.47 0.39 0.37 0.38 0.38 0.34 0.32 0.28 0.43 0.51 0.46 0.44 0.55 0.59 0.57 0.53 0.54 0.58 0.62 0.55 0.49 0.56 0.52 0.56 0.70 0.82 0.86 0.80 0.97 1.08 1.01 0.78 0.83 0.94 1.03 1.18 1.28 1.25 1.22 1.18 1.22 1.23 1.19 1.17 1.16 1.16 1.18 1.21 1.23
0.38 0.37 0.35 0.33 0.32 0.31 0.30 0.28 0.27 0.28 0.28 0.32 0.34 0.33 0.33 0.31 0.28 0.37 0.58 0.59 0.59 0.56 0.57 0.49 0.50 0.45 0.31 0.19 0.24 0.52 0.43 0.32 0.35 0.54 0.62 0.63 0.61 0.50 0.50 0.41 0.39 0.38 0.41 0.40 0.38 0.32 0.29 0.42 0.41 0.43 0.45 0.52 0.51 0.46 0.45 0.46 0.47 0.53 0.49 0.45 0.46 0.52 0.55 0.63 0.76 0.86 0.88 0.93 0.99 0.93 0.74 0.86 0.92 1.04 1.13 1.21 1.19 1.21 1.19 1.19 1.22 1.21 1.17 1.18 1.16 1.15 1.17 1.22
0.37 0.37 0.35 0.33 0.32 0.31 0.29 0.27 0.27 0.29 0.28 0.32 0.35 0.34 0.34 0.29 0.29 0.42 0.63 0.65 0.57 0.55 0.50 0.38 0.55 0.58 0.19 0.44 0.62 0.38 0.32 0.44 0.60 0.57 0.61 0.66 0.63 0.58 0.53 0.45 0.36 0.35 0.40 0.43 0.35 0.30 0.33 0.39 0.44 0.48 0.50 0.44 0.46 0.44 0.36 0.35 0.36 0.42 0.48 0.43 0.46 0.47 0.53 0.53 0.73 0.82 0.90 0.89 0.84 0.90 0.80 0.86 0.99 1.10 1.16 1.22 1.20 1.18 1.16 1.17 1.20 1.24 1.20 1.20 1.19 1.17 1.15 1.16
0.38 0.37 0.35 0.34 0.32 0.30 0.28 0.26 0.27 0.29 0.30 0.33 0.38 0.34 0.29 0.27 0.31 0.41 0.56 0.60 0.48 0.46 0.50 0.62 0.55 0.38 0.21 0.34 0.23 0.32 0.51 0.48 0.47 0.50 0.57 0.64 0.64 0.62 0.57 0.47 0.41 0.35 0.37 0.37 0.40 0.32 0.40 0.40 0.47 0.37 0.41 0.41 0.42 0.37 0.29 0.24 0.30 0.34 0.39 0.39 0.42 0.48 0.53 0.52 0.57 0.71 0.83 0.86 0.81 0.83 0.80 0.84 0.95 1.08 1.11 1.17 1.21 1.14 1.14 1.17 1.19 1.23 1.22 1.20 1.22 1.20 1.18 1.15
0.39 0.36 0.35 0.35 0.33 0.30 0.28 0.26 0.26 0.29 0.32 0.39 0.40 0.33 0.27 0.27 0.29 0.44 0.44 0.33 0.19 0.18 0.12 0.36 0.35 0.15 0.11 0.33 0.40 0.35 0.42 0.50 0.50 0.48 0.46 0.58 0.61 0.63 0.62 0.57 0.46 0.35 0.30 0.29 0.32 0.35 0.43 0.39 0.42 0.35 0.30 0.32 0.31 0.32 0.28 0.31 0.39 0.40 0.42 0.41 0.42 0.41 0.44 0.48 0.58 0.73 0.76 0.78 0.75 0.78 0.72 0.75 0.87 0.94 1.02 1.08 1.14 1.10 1.14 1.20 1.20 1.21 1.23 1.23 1.22 1.20 1.20 1.18
0.39 0.37 0.37 0.35 0.34 0.31 0.28 0.26 0.27 0.30 0.38 0.38 0.31 0.26 0.20 0.14 0.13 0.16 0.27 0.17 0.12 0.12 0.11 0.11 0.23 0.21 0.18 0.18 0.26 0.32 0.30 0.38 0.40 0.47 0.49 0.55 0.57 0.57 0.56 0.52 0.46 0.40 0.30 0.23 0.29 0.33 0.42 0.30 0.28 0.23 0.24 0.29 0.32 0.35 0.34 0.36 0.41 0.45 0.45 0.43 0.40 0.42 0.44 0.50 0.59 0.72 0.77 0.73 0.71 0.74 0.75 0.73 0.81 0.87 0.93 0.99 1.06 1.05 1.11 1.13 1.14 1.16 1.17 1.21 1.23 1.20 1.20 1.16
0.40 0.39 0.38 0.36 0.34 0.31 0.28 0.26 0.28 0.32 0.40 0.41 0.32 0.20 0.14 0.15 0.11 0.10 0.13 0.12 0.14 0.17 0.17 0.15 0.16 0.14 0.13 0.14 0.19 0.28 0.24 0.31 0.38 0.42 0.48 0.55 0.56 0.52 0.48 0.46 0.40 0.33 0.31 0.27 0.27 0.35 0.40 0.29 0.26 0.26 0.31 0.32 0.33 0.36 0.37 0.35 0.39 0.41 0.40 0.40 0.38 0.40 0.37 0.47 0.52 0.65 0.75 0.67 0.64 0.70 0.71 0.71 0.77 0.88 0.91 0.98 0.98 0.96 1.03 1.07 1.08 1.10 1.12 1.16 1.19 1.20 1.19 1.16
0.40 0.39 0.37 0.35 0.34 0.31 0.28 0.27 0.29 0.33 0.40 0.38 0.28 0.18 0.20 0.19 0.24 0.25 0.21 0.10 0.12 0.19 0.23 0.23 0.22 0.17 0.18 0.18 0.19 0.29 0.29 0.25 0.32 0.40 0.50 0.50 0.48 0.41 0.43 0.42 0.37 0.32 0.35 0.34 0.29 0.30 0.29 0.23 0.22 0.32 0.37 0.37 0.35 0.35 0.36 0.34 0.33 0.38 0.37 0.37 0.36 0.36 0.37 0.46 0.53 0.64 0.66 0.63 0.60 0.66 0.64 0.67 0.73 0.81 0.92 0.94 0.93 0.94 1.02 1.05 1.04 1.06 1.08 1.10 1.15 1.19 1.20 1.21
0.40 0.38 0.36 0.34 0.33 0.31 0.28 0.28 0.30 0.32 0.32 0.28 0.22 0.20 0.18 0.22 0.25 0.27 0.24 0.18 0.16 0.27 0.30 0.29 0.25 0.21 0.17 0.20 0.20 0.29 0.25 0.24 0.25 0.35 0.42 0.48 0.43 0.41 0.41 0.39 0.36 0.38 0.40 0.37 0.25 0.24 0.22 0.21 0.25 0.35 0.39 0.37 0.33 0.31 0.32 0.33 0.33 0.34 0.35 0.33 0.29 0.35 0.35 0.35 0.48 0.56 0.61 0.55 0.54 0.60 0.59 0.63 0.73 0.82 0.85 0.94 0.93 0.95 1.00 1.02 1.04 1.05 1.02 1.04 1.07 1.13 1.17 1.18
0.40 0.38 0.36 0.34 0.34 0.32 0.29 0.28 0.32 0.27 0.25 0.27 0.24 0.19 0.22 0.22 0.23 0.27 0.20 0.14 0.17 0.29 0.32 0.31 0.29 0.24 0.21 0.17 0.22 0.23 0.23 0.26 0.28 0.31 0.45 0.42 0.36 0.41 0.39 0.39 0.37 0.38 0.39 0.40 0.32 0.24 0.19 0.24 0.31 0.36 0.38 0.36 0.32 0.30 0.27 0.27 0.27 0.31 0.32 0.30 0.29 0.33 0.34 0.41 0.44 0.52 0.54 0.54 0.56 0.58 0.57 0.60 0.68 0.81 0.83 0.92 0.96 0.94 0.97 0.99 1.04 1.06 1.04 1.05 1.10 1.15 1.19 1.15
0.41 0.39 0.37 0.34 0.34 0.36 0.29 0.30 0.20 0.24 0.32 0.25 0.18 0.21 0.23 0.21 0.24 0.28 0.19 0.16 0.26 0.27 0.39 0.35 0.36 0.28 0.28 0.33 0.29 0.18 0.22 0.26 0.28 0.36 0.42 0.42 0.38 0.37 0.35 0.41 0.40 0.34 0.40 0.45 0.41 0.30 0.26 0.33 0.36 0.30 0.34 0.36 0.35 0.30 0.27 0.25 0.23 0.26 0.29 0.30 0.30 0.32 0.33 0.44 0.50 0.50 0.46 0.42 0.47 0.51 0.46 0.50 0.64 0.74 0.78 0.85 0.92 0.91 0.95 0.94 0.94 0.98 1.03 1.08 1.07 1.09 1.18 1.22
0.42 0.40 0.38 0.35 0.35 0.38 0.34 0.20 0.20 0.28 0.26 0.19 0.19 0.22 0.24 0.22 0.25 0.28 0.20 0.14 0.18 0.26 0.36 0.24 0.40 0.25 0.31 0.27 0.25 0.25 0.22 0.19 0.29 0.35 0.37 0.42 0.43 0.36 0.36 0.34 0.39 0.33 0.41 0.45 0.42 0.37 0.31 0.36 0.38 0.33 0.29 0.33 0.33 0.31 0.30 0.27 0.21 0.20 0.21 0.30 0.31 0.32 0.33 0.43 0.47 0.48 0.40 0.34 0.41 0.52 0.43 0.43 0.59 0.66 0.74 0.80 0.83 0.83 0.91 0.90 0.89 0.93 0.97 1.01 1.00 1.07 1.12 1.17
0.44 0.41 0.39 0.36 0.35 0.42 0.25 0.19 0.29 0.27 0.17 0.17 0.23 0.25 0.27 0.23 0.27 0.25 0.17 0.11 0.12 0.24 0.24 0.31 0.31 0.29 0.31 0.29 0.24 0.24 0.08 0.08 0.22 0.36 0.35 0.39 0.36 0.40 0.31 0.29 0.34 0.41 0.48 0.53 0.46 0.36 0.41 0.39 0.39 0.37 0.34 0.29 0.30 0.28 0.33 0.31 0.24 0.18 0.20 0.27 0.31 0.31 0.31 0.40 0.45 0.46 0.41 0.44 0.42 0.50 0.49 0.42 0.46 0.57 0.71 0.75 0.75 0.78 0.81 0.85 0.88 0.91 0.93 0.94 0.98 1.04 1.10 1.15
0.46 0.42 0.40 0.38 0.35 0.42 0.32 0.32 0.28 0.20 0.19 0.23 0.28 0.28 0.28 0.25 0.26 0.28 0.16 0.04 0.08 0.22 0.20 0.28 0.28 0.38 0.32 0.31 0.29 0.20 0.10 0.20 0.13 0.22 0.37 0.39 0.39 0.35 0.29 0.27 0.28 0.32 0.45 0.50 0.32 0.40 0.46 0.40 0.40 0.35 0.34 0.33 0.26 0.27 0.31 0.35 0.27 0.23 0.26 0.23 0.27 0.30 0.30 0.40 0.44 0.45 0.45 0.43 0.34 0.37 0.53 0.43 0.41 0.51 0.67 0.71 0.67 0.71 0.74 0.78 0.83 0.86 0.88 0.90 0.95 1.02 1.09 1.12
0.46 0.42 0.40 0.41 0.38 0.41 0.43 0.35 0.29 0.21 0.24 0.29 0.30 0.30 0.31 0.27 0.24 0.18 0.12 0.04 0.20 0.17 0.33 0.25 0.40 0.34 0.32 0.33 0.26 0.25 0.21 0.20 0.19 0.23 0.31 0.41 0.41 0.36 0.26 0.27 0.29 0.33 0.42 0.47 0.39 0.45 0.48 0.49 0.45 0.41 0.35 0.30 0.32 0.34 0.35 0.36 0.30 0.30 0.34 0.35 0.27 0.28 0.32 0.38 0.43 0.43 0.43 0.39 0.31 0.34 0.40 0.41 0.40 0.47 0.55 0.67 0.64 0.65 0.68 0.72 0.76 0.80 0.83 0.87 0.92 0.99 1.07 1.12
0.47 0.44 0.41 0.46 0.42 0.40 0.39 0.39 0.29 0.28 0.32 0.34 0.36 0.36 0.32 0.25 0.20 0.11 0.08 0.04 0.18 0.13 0.23 0.26 0.28 0.28 0.31 0.27 0.25 0.26 0.23 0.23 0.29 0.29 0.27 0.36 0.38 0.39 0.35 0.35 0.30 0.30 0.33 0.42 0.44 0.46 0.50 0.56 0.55 0.46 0.36 0.36 0.37 0.37 0.38 0.39 0.37 0.36 0.34 0.35 0.35 0.30 0.29 0.35 0.40 0.39 0.37 0.30 0.31 0.35 0.36 0.36 0.36 0.43 0.48 0.53 0.57 0.62 0.65 0.69 0.75 0.79 0.83 0.85 0.88 0.93 1.02 1.07
0.49 0.47 0.42 0.50 0.41 0.45 0.44 0.28 0.26 0.33 0.37 0.39 0.41 0.34 0.25 0.21 0.11 0.09 0.04 0.09 0.14 0.14 0.19 0.22 0.24 0.31 0.30 0.26 0.23 0.26 0.25 0.24 0.27 0.30 0.27 0.27 0.36 0.39 0.35 0.30 0.33 0.29 0.29 0.34 0.39 0.43 0.48 0.52 0.51 0.50 0.49 0.44 0.42 0.36 0.39 0.42 0.41 0.38 0.34 0.32 0.34 0.29 0.29 0.31 0.34 0.37 0.28 0.25 0.30 0.35 0.34 0.32 0.25 0.35 0.47 0.55 0.59 0.61 0.61 0.61 0.67 0.74 0.78 0.82 0.87 0.94 1.02 1.05
0.51 0.49 0.44 0.50 0.53 0.57 0.39 0.29 0.35 0.41 0.42 0.44 0.39 0.26 0.19 0.11 0.16 0.08 0.07 0.22 0.08 0.15 0.15 0.16 0.24 0.28 0.29 0.28 0.25 0.24 0.24 0.25 0.27 0.29 0.26 0.26 0.27 0.32 0.32 0.26 0.25 0.21 0.22 0.25 0.27 0.40 0.42 0.43 0.49 0.53 0.55 0.47 0.40 0.33 0.34 0.36 0.38 0.37 0.35 0.34 0.29 0.22 0.22 0.20 0.26 0.25 0.25 0.24 0.30 0.33 0.32 0.27 0.25 0.30 0.40 0.53 0.59 0.60 0.61 0.61 0.64 0.70 0.73 0.78 0.83 0.91 0.99 1.05
0.54 0.53 0.47 0.54 0.58 0.53 0.50 0.50 0.50 0.43 0.46 0.45 0.32 0.26 0.16 0.11 0.07 0.16 0.13 0.14 0.11 0.18 0.14 0.18 0.20 0.27 0.28 0.27 0.25 0.26 0.29 0.23 0.26 0.28 0.31 0.30 0.27 0.29 0.35 0.31 0.30 0.25 0.18 0.24 0.27 0.29 0.31 0.41 0.46 0.48 0.48 0.51 0.44 0.30 0.27 0.29 0.33 0.33 0.30 0.29 0.26 0.21 0.18 0.16 0.19 0.23 0.24 0.27 0.32 0.30 0.30 0.24 0.26 0.28 0.36 0.37 0.52 0.59 0.62 0.65 0.67 0.69 0.69 0.72 0.78 0.88 0.95 1.03
0.56 0.57 0.47 0.54 0.58 0.58 0.57 0.57 0.50 0.49 0.46 0.40 0.30 0.22 0.17 0.11 0.11 0.21 0.16 0.16 0.14 0.19 0.18 0.15 0.15 0.22 0.27 0.25 0.26 0.29 0.26 0.28 0.25 0.27 0.30 0.30 0.30 0.30 0.35 0.38 0.34 0.29 0.28 0.28 0.25 0.26 0.21 0.25 0.33 0.39 0.36 0.44 0.43 0.37 0.30 0.28 0.31 0.31 0.30 0.30 0.24 0.22 0.17 0.13 0.16 0.15 0.17 0.20 0.25 0.29 0.24 0.20 0.20 0.23 0.32 0.37 0.39 0.46 0.61 0.67 0.69 0.69 0.68 0.70 0.75 0.84 0.93 0.99
0.60 0.58 0.55 0.59 0.59 0.57 0.59 0.55 0.49 0.47 0.44 0.36 0.27 0.20 0.13 0.12 0.16 0.14 0.14 0.16 0.17 0.17 0.14 0.17 0.13 0.15 0.22 0.26 0.29 0.29 0.28 0.25 0.28 0.28 0.28 0.28 0.28 0.33 0.32 0.37 0.46 0.45 0.39 0.27 0.28 0.28 0.26 0.24 0.29 0.40 0.43 0.45 0.38 0.39 0.36 0.32 0.32 0.33 0.30 0.29 0.26 0.21 0.25 0.17 0.18 0.17 0.17 0.19 0.19 0.23 0.21 0.23 0.23 0.27 0.31 0.36 0.38 0.39 0.46 0.60 0.69 0.69 0.69 0.72 0.76 0.80 0.88 0.95
0.60 0.55 0.63 0.56 0.56 0.56 0.56 0.51 0.46 0.41 0.39 0.33 0.25 0.19 0.16 0.18 0.15 0.18 0.16 0.20 0.18 0.14 0.14 0.14 0.14 0.11 0.17 0.23 0.28 0.27 0.31 0.27 0.28 0.29 0.28 0.30 0.35 0.34 0.40 0.43 0.41 0.45 0.39 0.30 0.33 0.25 0.26 0.22 0.30 0.34 0.40 0.41 0.37 0.38 0.36 0.35 0.23 0.29 0.30 0.21 0.21 0.28 0.28 0.23 0.20 0.19 0.18 0.16 0.14 0.20 0.21 0.22 0.25 0.25 0.27 0.29 0.31 0.33 0.48 0.57 0.64 0.67 0.70 0.72 0.72 0.77 0.85 0.91
0.57 0.59 0.53 0.55 0.60 0.66 0.66 0.60 0.51 0.42 0.38 0.32 0.24 0.19 0.23 0.23 0.22 0.20 0.21 0.18 0.17 0.17 0.15 0.10 0.12 0.11 0.12 0.19 0.24 0.27 0.29 0.31 0.30 0.29 0.26 0.31 0.32 0.39 0.39 0.43 0.50 0.47 0.46 0.41 0.31 0.34 0.25 0.22 0.29 0.31 0.29 0.35 0.40 0.39 0.38 0.36 0.35 0.34 0.26 0.23 0.27 0.31 0.32 0.25 0.18 0.17 0.14 0.11 0.10 0.14 0.16 0.19 0.19 0.18 0.26 0.26 0.26 0.29 0.33 0.43 0.53 0.60 0.67 0.71 0.71 0.76 0.79 0.84
0.57 0.54 0.55 0.56 0.60 0.60 0.60 0.55 0.47 0.42 0.36 0.31 0.25 0.25 0.28 0.21 0.25 0.23 0.24 0.20 0.18 0.19 0.15 0.14 0.14 0.16 0.13 0.16 0.22 0.27 0.32 0.29 0.30 0.30 0.27 0.31 0.27 0.43 0.41 0.43 0.49 0.46 0.47 0.47 0.37 0.37 0.39 0.23 0.27 0.30 0.29 0.31 0.37 0.38 0.36 0.38 0.37 0.31 0.26 0.31 0.24 0.21 0.20 0.24 0.22 0.15 0.12 0.11 0.12 0.13 0.11 0.16 0.19 0.16 0.20 0.24 0.24 0.26 0.28 0.38 0.42 0.49 0.58 0.64 0.69 0.73 0.76 0.81
0.56 0.50 0.43 0.51 0.61 0.59 0.57 0.51 0.40 0.36 0.33 0.28 0.27 0.25 0.27 0.26 0.27 0.25 0.23 0.22 0.22 0.20 0.17 0.18 0.14 0.17 0.16 0.15 0.24 0.28 0.32 0.29 0.33 0.30 0.28 0.29 0.28 0.40 0.43 0.48 0.45 0.49 0.49 0.45 0.40 0.40 0.41 0.27 0.25 0.32 0.32 0.34 0.36 0.36 0.29 0.30 0.35 0.34 0.35 0.32 0.32 0.25 0.21 0.19 0.18 0.19 0.16 0.12 0.11 0.12 0.14 0.10 0.12 0.12 0.14 0.17 0.24 0.24 0.25 0.29 0.42 0.45 0.51 0.58 0.64 0.69 0.73 0.79
0.49 0.40 0.39 0.57 0.63 0.62 0.58 0.47 0.34 0.34 0.29 0.24 0.26 0.28 0.30 0.28 0.30 0.30 0.28 0.25 0.21 0.20 0.19 0.18 0.19 0.15 0.17 0.18 0.21 0.25 0.32 0.33 0.34 0.33 0.31 0.34 0.33 0.42 0.40 0.52 0.46 0.47 0.49 0.47 0.44 0.47 0.39 0.42 0.23 0.27 0.37 0.38 0.32 0.35 0.31 0.30 0.28 0.29 0.28 0.28 0.30 0.26 0.27 0.25 0.23 0.19 0.17 0.14 0.13 0.11 0.10 0.11 0.12 0.14 0.12 0.11 0.10 0.18 0.24 0.25 0.36 0.45 0.50 0.56 0.59 0.63 0.66 0.72
0.52 0.42 0.40 0.57 0.61 0.61 0.54 0.41 0.31 0.30 0.29 0.31 0.30 0.29 0.33 0.31 0.33 0.32 0.31 0.31 0.26 0.27 0.23 0.20 0.19 0.17 0.18 0.17 0.19 0.27 0.28 0.32 0.35 0.34 0.36 0.36 0.37 0.32 0.49 0.50 0.50 0.45 0.48 0.45 0.42 0.44 0.39 0.36 0.25 0.27 0.30 0.32 0.35 0.37 0.34 0.34 0.33 0.31 0.27 0.26 0.27 0.25 0.22 0.19 0.18 0.21 0.19 0.17 0.15 0.13 0.10 0.14 0.18 0.19 0.20 0.22 0.22 0.18 0.13 0.13 0.25 0.38 0.42 0.50 0.58 0.59 0.60 0.66
0.43 0.33 0.37 0.60 0.61 0.57 0.46 0.31 0.32 0.35 0.31 0.29 0.29 0.30 0.30 0.37 0.34 0.32 0.30 0.31 0.28 0.25 0.27 0.23 0.23 0.20 0.20 0.20 0.21 0.23 0.27 0.29 0.36 0.36 0.38 0.35 0.41 0.39 0.45 0.50 0.49 0.49 0.44 0.40 0.41 0.46 0.49 0.43 0.35 0.26 0.30 0.32 0.37 0.39 0.40 0.39 0.37 0.36 0.33 0.28 0.29 0.28 0.25 0.20 0.15 0.16 0.17 0.17 0.19 0.19 0.15 0.15 0.25 0.30 0.29 0.27 0.27 0.25 0.24 0.22 0.23 0.36 0.43 0.47 0.48 0.50 0.58 0.66
0.42 0.39 0.55 0.62 0.61 0.54 0.40 0.33 0.35 0.34 0.33 0.35 0.38 0.37 0.36 0.35 0.33 0.37 0.33 0.31 0.27 0.28 0.24 0.23 0.22 0.20 0.23 0.23 0.24 0.24 0.28 0.28 0.36 0.34 0.38 0.40 0.40 0.42 0.48 0.48 0.50 0.46 0.48 0.45 0.46 0.47 0.52 0.42 0.31 0.28 0.35 0.38 0.41 0.43 0.44 0.45 0.40 0.37 0.36 0.35 0.31 0.27 0.25 0.22 0.18 0.19 0.16 0.15 0.15 0.15 0.13 0.15 0.25 0.32 0.34 0.32 0.31 0.29 0.28 0.26 0.25 0.32 0.44 0.48 0.48 0.51 0.56 0.65
0.47 0.46 0.50 0.59 0.62 0.54 0.36 0.28 0.28 0.31 0.34 0.36 0.35 0.35 0.40 0.37 0.37 0.34 0.33 0.32 0.28 0.27 0.26 0.25 0.26 0.26 0.22 0.26 0.25 0.22 0.31 0.26 0.36 0.34 0.35 0.41 0.37 0.49 0.47 0.48 0.49 0.44 0.47 0.45 0.44 0.53 0.40 0.39 0.34 0.25 0.27 0.29 0.32 0.38 0.38 0.41 0.42 0.36 0.35 0.35 0.33 0.30 0.28 0.26 0.26 0.26 0.19 0.17 0.14 0.13 0.11 0.13 0.25 0.31 0.34 0.33 0.34 0.32 0.30 0.29 0.28 0.32 0.40 0.45 0.47 0.50 0.54 0.60
0.51 0.55 0.53 0.52 0.58 0.50 0.35 0.38 0.34 0.32 0.34 0.33 0.33 0.32 0.34 0.36 0.39 0.38 0.34 0.31 0.31 0.31 0.29 0.27 0.27 0.27 0.24 0.26 0.23 0.25 0.27 0.27 0.28 0.36 0.37 0.37 0.38 0.47 0.47 0.47 0.49 0.47 0.49 0.56 0.57 0.55 0.41 0.37 0.34 0.25 0.24 0.24 0.23 0.25 0.29 0.34 0.37 0.39 0.37 0.35 0.34 0.31 0.29 0.27 0.24 0.24 0.19 0.19 0.18 0.14 0.13 0.18 0.26 0.30 0.31 0.32 0.33 0.32 0.30 0.30 0.30 0.33 0.36 0.40 0.46 0.50 0.53 0.60
0.43 0.35 0.45 0.47 0.49 0.49 0.45 0.48 0.43 0.38 0.35 0.34 0.32 0.35 0.36 0.33 0.36 0.38 0.37 0.34 0.35 0.33 0.32 0.31 0.31 0.29 0.26 0.25 0.23 0.23 0.22 0.29 0.28 0.30 0.34 0.33 0.37 0.42 0.46 0.48 0.49 0.49 0.51 0.59 0.56 0.51 0.41 0.42 0.39 0.35 0.34 0.32 0.34 0.38 0.45 0.49 0.44 0.37 0.39 0.35 0.34 0.34 0.33 0.30 0.28 0.24 0.19 0.19 0.18 0.16 0.15 0.17 0.22 0.26 0.30 0.31 0.31 0.29 0.29 0.30 0.31 0.34 0.37 0.41 0.46 0.53 0.57 0.59
0.52 0.42 0.43 0.38 0.45 0.45 0.41 0.43 0.40 0.41 0.35 0.41 0.32 0.34 0.32 0.34 0.35 0.36 0.43 0.33 0.37 0.35 0.32 0.30 0.30 0.26 0.26 0.24 0.23 0.22 0.25 0.26 0.31 0.31 0.33 0.34 0.38 0.42 0.47 0.47 0.48 0.50 0.59 0.55 0.56 0.49 0.44 0.39 0.40 0.37 0.37 0.38 0.40 0.41 0.48 0.49 0.44 0.42 0.39 0.38 0.35 0.34 0.33 0.30 0.27 0.22 0.24 0.21 0.16 0.18 0.19 0.16 0.20 0.26 0.32 0.31 0.31 0.31 0.30 0.31 0.34 0.40 0.42 0.44 0.48 0.52 0.56 0.59
0.42 0.50 0.55 0.56 0.43 0.36 0.36 0.37 0.42 0.40 0.43 0.43 0.37 0.39 0.35 0.34 0.35 0.32 0.37 0.39 0.38 0.37 0.30 0.31 0.30 0.30 0.27 0.24 0.24 0.21 0.22 0.23 0.27 0.28 0.35 0.36 0.37 0.41 0.39 0.45 0.45 0.55 0.55 0.53 0.55 0.49 0.43 0.39 0.41 0.37 0.37 0.41 0.42 0.45 0.52 0.50 0.48 0.45 0.42 0.40 0.34 0.34 0.33 0.29 0.26 0.27 0.27 0.21 0.18 0.20 0.22 0.18 0.20 0.25 0.33 0.34 0.33 0.31 0.31 0.32 0.38 0.45 0.48 0.50 0.52 0.53 0.55 0.58
0.56 0.57 0.58 0.64 0.48 0.47 0.44 0.44 0.46 0.43 0.41 0.42 0.40 0.40 0.36 0.36 0.34 0.38 0.37 0.34 0.35 0.33 0.36 0.27 0.29 0.31 0.29 0.28 0.26 0.22 0.23 0.20 0.23 0.32 0.31 0.33 0.35 0.37 0.36 0.40 0.49 0.52 0.53 0.52 0.53 0.52 0.46 0.42 0.42 0.39 0.36 0.42 0.45 0.49 0.54 0.51 0.50 0.47 0.43 0.40 0.37 0.33 0.33 0.32 0.29 0.28 0.27 0.24 0.24 0.24 0.25 0.21 0.20 0.25 0.32 0.36 0.37 0.36 0.39 0.42 0.41 0.46 0.48 0.51 0.52 0.56 0.57 0.59
0.51 0.51 0.51 0.63 0.59 0.53 0.49 0.48 0.45 0.42 0.37 0.42 0.36 0.39 0.38 0.38 0.34 0.37 0.40 0.37 0.32 0.34 0.40 0.33 0.32 0.33 0.32 0.30 0.29 0.25 0.27 0.28 0.30 0.28 0.32 0.33 0.32 0.36 0.36 0.39 0.40 0.47 0.51 0.51 0.52 0.53 0.46 0.40 0.44 0.38 0.35 0.40 0.45 0.48 0.54 0.53 0.49 0.43 0.41 0.38 0.36 0.35 0.33 0.32 0.32 0.30 0.29 0.27 0.27 0.27 0.27 0.25 0.26 0.29 0.35 0.41 0.43 0.48 0.47 0.44 0.40 0.41 0.47 0.50 0.50 0.54 0.58 0.64
0.66 0.69 0.66 0.57 0.51 0.52 0.52 0.48 0.44 0.41 0.37 0.40 0.37 0.40 0.40 0.40 0.37 0.40 0.38 0.43 0.37 0.34 0.36 0.33 0.35 0.33 0.34 0.32 0.31 0.29 0.31 0.31 0.33 0.33 0.33 0.33 0.28 0.38 0.34 0.37 0.43 0.40 0.47 0.50 0.52 0.51 0.49 0.43 0.44 0.38 0.33 0.38 0.44 0.46 0.51 0.54 0.50 0.43 0.39 0.38 0.37 0.35 0.32 0.32 0.31 0.31 0.29 0.27 0.28 0.29 0.27 0.28 0.32 0.35 0.41 0.45 0.46 0.45 0.45 0.43 0.40 0.42 0.45 0.49 0.50 0.52 0.57 0.64
0.74 0.78 0.75 0.65 0.50 0.56 0.49 0.50 0.47 0.42 0.35 0.41 0.40 0.41 0.40 0.40 0.44 0.46 0.38 0.43 0.43 0.43 0.42 0.40 0.38 0.34 0.32 0.30 0.28 0.30 0.34 0.35 0.36 0.36 0.36 0.36 0.38 0.39 0.40 0.40 0.42 0.41 0.43 0.46 0.53 0.50 0.48 0.44 0.40 0.37 0.33 0.37 0.43 0.47 0.51 0.53 0.46 0.38 0.39 0.42 0.44 0.42 0.43 0.45 0.43 0.36 0.33 0.32 0.30 0.27 0.27 0.37 0.41 0.43 0.40 0.46 0.46 0.46 0.46 0.43 0.41 0.46 0.50 0.51 0.53 0.58 0.61 0.64
Wind_Speed
18 18 19 19 19 19 19 19 19 19 19 19 19 19 19 19 18 17 17 16 16 15 15 15 14 14 14 13 12 12 12 11 11 11 13 15 16 17 16 14 14 18 17 16 17 18 18 18 18 19 18 16 14 13 13 13 12 10 7 6 5 4 3 3 3 3 4 3 4 6 7 6 5 7 6 5 7 8 8 6 7 6 7 10 12 17 19 19
19 19 19 20 20 20 20 20 20 20 20 20 20 20 20 19 19 18 18 17 16 15 15 15 15 15 14 13 12 12 11 11 12 13 16 15 15 18 19 17 16 17 17 17 18 18 18 19 19 19 18 16 15 15 14 12 13 10 7 7 7 6 4 3 3 3 4 4 5 6 7 6 6 7 7 6 7 8 7 6 7 8 9 10 14 18 18 19
20 20 20 20 21 21 21 21 21 21 21 21 20 20 20 20 20 19 18 17 17 16 15 15 15 14 14 13 12 12 11 11 11 13 14 14 16 18 18 19 18 18 18 17 18 19 19 19 19 19 17 16 16 16 14 13 13 11 9 8 8 7 5 4 4 4 6 7 6 6 6 6 6 6 6 6 7 8 6 7 8 9 11 13 15 17 18 19
21 21 21 22 22 22 22 22 22 22 22 22 21 21 21 20 20 20 19 18 17 16 16 15 15 14 14 13 12 11 11 11 11 11 10 10 14 17 18 20 19 19 19 18 18 19 19 19 19 19 17 16 16 16 15 14 12 11 11 10 9 8 6 6 6 6 8 8 7 7 6 6 7 7 6 7 7 6 6 8 9 11 14 15 15 17 17 18
22 22 22 23 23 23 23 23 23 23 23 22 22 22 21 21 21 20 19 19 18 17 16 16 15 14 14 13 12 11 10 9 9 8 8 8 12 17 19 20 20 20 19 18 19 19 19 19 19 19 18 16 16 16 16 16 14 12 13 13 11 8 6 7 7 7 9 9 7 8 7 6 7 7 7 8 7 5 6 9 10 13 15 15 16 16 16 17
22 23 23 23 24 24 24 24 24 24 23 23 23 23 22 22 21 21 20 19 19 18 17 16 15 14 13 12 12 12 11 10 9 8 7 7 9 16 19 20 20 20 20 19 19 20 19 19 20 19 17 16 17 16 16 17 16 13 13 13 13 11 8 8 9 8 8 9 7 7 8 7 7 7 7 8 7 6 7 10 11 13 14 15 16 16 16 16
23 23 24 24 24 24 24 24 24 24 24 24 24 23 23 23 22 22 21 20 19 19 18 16 15 14 13 12 12 12 12 14 13 12 9 7 7 14 19 20 20 20 20 20 20 21 21 21 21 19 17 16 17 17 16 16 17 15 13 13 13 13 11 9 11 10 9 10 8 8 8 8 8 7 7 8 7 8 9 11 12 13 14 14 15 16 16 16
24 24 24 24 24 25 25 25 25 25 25 25 24 24 24 23 23 22 22 21 20 19 19 17 15 15 13 13 13 12 14 15 15 13 12 9 7 12 18 19 20 20 20 21 20 21 22 22 22 20 17 17 17 17 17 16 16 16 15 14 13 13 13 12 11 10 10 11 9 8 7 8 11 8 7 8 9 10 11 11 12 13 14 14 15 16 16 16
24 24 24 25 25 25 25 25 25 25 25 25 25 25 25 24 24 23 23 22 21 20 19 18 16 15 14 13 13 13 15 14 13 13 13 11 10 12 17 19 20 21 20 21 21 21 22 22 23 21 18 17 17 16 16 16 15 15 15 15 13 13 13 13 12 11 11 11 10 9 7 9 12 8 6 9 10 12 12 12 13 14 13 14 15 15 15 16
25 25 25 26 26 26 26 26 26 26 26 25 25 25 25 25 24 24 23 22 21 21 20 18 17 16 15 14 13 13 14 12 11 13 13 12 12 13 16 19 21 21 20 21 21 22 22 22 22 22 18 17 17 17 17 16 14 15 15 15 14 14 14 14 14 13 12 12 12 11 9 11 12 9 7 9 13 13 13 13 13 13 13 14 14 14 15 16
25 26 26 26 26 27 27 27 27 26 26 26 26 26 25 25 24 24 24 23 22 21 20 19 18 17 16 15 15 15 15 12 10 11 12 13 14 15 16 18 21 21 21 21 21 22 22 22 22 21 19 17 17 17 17 18 16 15 16 14 15 15 15 15 14 14 12 11 13 12 9 10 12 10 8 11 14 15 14 13 13 13 12 13 14 14 15 16
26 26 27 27 27 27 27 27 27 27 27 27 26 26 26 25 24 24 24 24 23 22 21 20 19 18 17 17 18 18 15 14 13 12 13 15 16 16 17 18 20 22 22 21 21 22 23 23 23 22 19 17 17 15 16 19 18 17 16 14 15 15 15 16 15 14 13 12 13 13 9 10 11 11 11 14 15 15 14 13 13 13 12 13 14 13 14 15
27 27 27 27 27 27 27 27 27 27 27 27 27 26 26 26 25 25 25 24 23 22 21 21 20 20 18 18 20 20 18 18 18 17 17 17 18 18 18 19 20 21 22 22 22 23 23 24 24 23 21 18 17 16 15 17 17 17 16 14 14 14 15 17 16 14 14 14 14 13 11 12 11 12 15 16 16 15 14 13 13 12 12 13 13 13 13 14
28 28 28 28 28 27 28 27 27 27 27 27 26 26 26 26 26 25 25 23 21 20 21 21 20 20 20 20 21 21 22 22 20 20 19 19 19 19 20 20 20 21 21 22 22 23 24 25 24 23 22 20 19 18 17 16 15 15 15 14 15 14 15 17 17 16 15 15 16 13 12 13 12 13 17 17 17 16 14 14 13 12 12 13 13 14 13 13
29 29 29 29 28 28 28 28 28 27 27 26 26 27 27 27 26 25 24 21 19 20 20 21 21 20 20 22 23 22 22 21 22 22 21 20 20 19 20 21 21 21 21 21 21 22 24 25 24 23 22 21 21 19 18 17 16 15 15 14 15 15 14 15 17 18 16 15 17 14 12 12 12 15 19 19 18 17 15 14 14 13 13 13 13 14 14 12
30 30 30 30 29 28 28 29 28 27 27 27 27 28 27 27 26 24 22 20 20 21 21 21 21 21 20 21 21 21 21 20 20 22 22 22 22 20 21 22 22 21 21 21 21 21 24 24 24 23 23 22 21 20 19 18 18 17 16 15 14 15 15 14 15 18 18 16 17 16 12 11 13 16 20 20 19 17 15 15 15 14 14 14 13 13 14 13
31 31 30 31 30 29 30 29 28 28 27 27 27 27 27 27 25 22 20 19 21 23 23 22 21 22 22 21 21 20 20 20 19 19 21 23 24 22 21 21 22 22 21 22 21 22 23 24 23 23 24 23 22 21 20 20 20 18 17 16 15 15 16 16 15 17 19 17 17 18 14 12 14 16 19 21 20 17 17 16 15 14 14 15 14 13 14 13
32 32 31 31 31 30 30 30 29 28 28 28 28 27 26 26 24 21 19 20 23 24 23 23 21 21 22 22 22 21 20 21 21 20 21 23 25 24 22 22 22 23 22 22 22 23 23 23 22 22 23 24 23 23 23 21 20 20 18 17 16 16 16 18 17 16 18 19 19 19 16 14 16 18 19 20 21 19 18 17 16 14 15 15 14 14 14 14
32 32 32 32 32 31 31 31 30 29 29 28 27 27 25 24 22 20 20 21 23 22 23 23 23 22 22 22 23 24 23 23 23 23 22 23 25 25 24 23 23 24 23 21 22 24 23 22 22 23 24 25 25 25 24 21 19 20 20 18 17 17 17 17 17 17 18 19 20 20 18 15 17 20 19 20 21 20 19 18 16 14 15 15 15 15 15 15
33 33 32 32 32 32 31 31 30 29 29 27 27 26 24 24 22 21 22 24 24 24 27 28 28 28 27 26 26 25 25 25 24 24 23 23 25 26 25 24 23 24 23 21 22 23 23 23 24 25 24 25 26 25 23 22 21 20 20 19 18 18 18 17 18 18 18 18 19 21 20 16 17 20 20 20 22 21 20 19 17 15 14 15 16 16 16 16
34 33 33 33 33 33 32 31 30 29 28 26 25 24 23 24 23 24 26 26 25 26 28 30 31 31 29 28 28 25 24 25 25 25 24 25 26 27 26 25 24 24 24 22 22 22 24 25 25 25 23 23 25 26 24 23 23 22 20 20 19 18 19 18 18 18 18 17 18 20 20 18 17 20 20 21 22 21 22 20 18 17 15 14 16 17 17 16
34 34 34 34 33 33 32 31 29 28 27 25 24 23 23 24 24 25 26 25 26 25 25 27 29 30 29 29 31 28 26 27 27 27 26 25 27 28 27 26 26 24 24 24 23 24 25 26 25 23 22 22 24 26 26 25 25 23 22 21 20 19 18 18 19 19 18 17 18 19 21 19 18 21 22 23 23 22 23 22 19 18 16 14 16 17 17 17
35 35 35 34 34 34 32 31 29 27 26 25 24 23 24 25 25 26 24 23 25 24 21 21 23 26 27 27 29 30 29 28 27 29 28 26 27 29 28 28 27 25 25 27 27 26 25 24 24 23 22 23 24 25 27 27 26 25 24 23 21 20 19 18 19 18 17 17 17 19 21 19 17 20 23 24 24 23 24 24 21 19 17 16 17 17 18 18
36 35 35 35 34 33 32 30 28 26 26 25 24 24 25 26 25 25 24 21 20 20 18 17 19 20 21 22 25 29 30 29 29 29 29 27 27 28 29 29 28 27 28 29 29 29 26 21 22 25 25 24 25 25 27 27 27 27 27 25 23 22 21 21 19 16 16 17 18 20 20 20 20 21 23 24 23 23 23 23 21 20 19 17 17 18 18 18
36 35 35 35 33 33 32 28 25 26 27 25 25 26 26 25 25 24 22 18 18 19 17 16 16 16 16 18 23 27 29 29 30 30 29 28 27 28 29 29 29 29 29 30 30 30 28 22 22 26 27 26 25 26 27 27 26 28 29 28 25 23 22 23 20 16 16 16 18 20 20 20 22 24 25 24 22 22 23 22 21 21 19 18 18 18 19 19
36 35 35 34 32 31 29 25 25 27 26 25 25 27 26 26 25 23 20 17 17 18 17 16 16 16 16 17 21 25 27 28 30 31 31 30 28 27 28 29 29 30 29 28 28 28 27 25 24 24 26 27 27 26 26 26 25 27 29 28 27 25 23 24 21 18 18 16 16 21 21 19 21 25 26 26 24 24 23 22 22 21 20 20 19 19 19 19
35 35 35 34 32 29 25 23 26 26 24 24 26 27 27 27 26 22 19 17 17 18 18 17 17 17 17 19 21 23 24 23 27 32 33 32 30 28 29 30 29 30 28 27 28 28 27 28 27 26 26 27 28 27 26 26 26 25 26 27 28 26 25 25 22 20 20 17 15 20 23 21 21 25 27 27 27 25 24 23 22 21 22 21 21 21 21 20
36 36 35 34 31 28 25 25 26 25 24 25 26 26 27 27 24 20 17 16 18 18 18 18 18 17 18 19 18 21 22 20 20 26 32 33 32 29 30 31 30 30 29 29 30 27 26 29 29 28 27 27 27 26 25 26 26 22 22 26 28 28 26 25 24 22 20 18 17 19 22 22 21 24 27 28 29 27 26 25 23 22 23 22 22 23 22 21
37 37 35 34 31 28 26 26 26 26 26 26 26 26 27 25 20 17 16 16 18 17 18 19 18 18 18 16 15 17 21 21 18 21 27 32 33 31 30 30 30 30 30 32 31 26 25 28 29 29 29 27 26 25 25 27 26 22 21 23 25 27 27 25 25 24 22 21 22 20 20 21 20 23 27 28 29 29 27 25 23 23 24 23 23 23 23 23
39 37 35 33 29 26 26 26 26 26 26 26 26 26 26 21 17 16 16 17 18 18 19 19 18 18 17 16 16 16 17 19 19 20 24 29 33 32 30 29 30 30 30 31 32 30 27 27 28 30 29 27 25 25 26 26 25 22 22 23 23 24 25 24 24 25 23 22 25 24 21 20 19 22 27 29 29 28 26 24 23 23 24 24 24 24 24 24
39 37 34 30 26 25 25 25 25 25 25 25 25 26 23 18 16 15 16 18 19 19 19 19 18 18 16 15 17 17 18 18 16 17 21 25 30 32 30 29 30 31 31 30 31 31 30 29 28 28 29 28 27 26 26 26 25 23 23 24 23 22 22 23 24 24 24 23 25 25 23 21 20 20 24 28 29 28 26 25 24 23 23 24 24 24 24 25
39 35 32 27 24 23 23 23 25 25 24 24 24 23 18 15 15 16 17 19 18 17 17 18 19 19 18 17 17 18 18 18 17 17 20 22 27 32 33 30 29 31 33 32 30 29 32 33 29 27 28 29 29 27 26 26 26 25 25 25 23 21 21 22 23 23 23 23 25 24 22 21 21 21 22 25 28 29 26 25 24 23 23 24 25 25 25 25
38 34 29 25 23 23 22 23 25 24 23 23 22 19 14 12 14 15 17 17 16 18 18 19 20 21 21 20 18 18 18 19 17 17 18 20 22 27 32 32 30 30 31 32 30 29 29 31 33 31 28 29 30 29 27 27 28 27 27 27 25 22 22 22 22 22 21 23 25 24 22 21 21 22 22 23 25 27 27 27 27 25 24 24 26 26 26 26
38 33 28 25 23 23 23 23 24 22 21 21 18 15 12 12 14 15 15 15 16 19 18 19 21 21 21 20 18 16 18 19 17 16 17 18 19 20 24 28 28 29 30 30 31 31 29 29 32 34 30 28 30 30 28 27 27 28 27 27 26 24 23 21 20 21 20 20 23 23 22 21 20 21 23 23 21 23 27 30 29 28 26 24 25 27 27 27
37 32 26 23 22 22 22 22 22 20 18 18 15 13 11 12 13 13 14 15 17 18 18 18 19 19 20 21 19 17 18 19 17 18 18 17 19 18 20 23 22 22 25 26 27 29 32 31 30 31 31 29 29 29 28 27 27 27 26 26 28 27 23 20 19 20 19 18 21 24 22 21 20 20 21 21 20 20 24 29 30 29 27 24 23 26 27 27
35 29 24 21 21 22 22 22 21 19 17 15 13 13 12 12 12 13 13 15 16 17 17 17 15 16 19 22 22 19 19 19 18 19 19 19 19 19 19 21 20 20 22 25 27 27 29 32 30 29 32 33 31 29 29 30 27 26 28 29 28 26 23 21 19 18 17 18 22 24 24 20 19 20 20 21 21 19 20 25 28 29 28 25 24 25 27 27
32 27 22 20 22 24 24 23 21 19 17 14 12 13 13 12 13 13 14 14 15 15 15 15 13 13 17 21 22 20 20 20 18 19 20 20 20 19 19 21 20 20 21 24 28 26 25 29 31 31 33 34 34 31 30 32 29 27 29 29 25 23 23 22 19 17 18 19 20 23 26 23 20 21 22 23 24 22 22 24 26 28 28 27 26 25 26 27
30 25 18 19 24 25 24 22 20 18 16 14 14 14 14 13 13 14 14 14 14 14 13 13 13 12 14 18 20 20 19 20 19 19 20 20 20 19 18 21 21 19 20 23 27 26 24 27 30 33 33 32 33 33 31 32 33 30 28 27 25 24 25 24 21 19 19 19 18 20 24 25 24 23 23 25 27 26 24 25 26 27 27 27 27 27 27 27
29 22 16 20 26 26 24 21 18 16 14 14 14 14 14 14 13 14 14 13 13 13 12 12 12 12 13 16 19 19 19 21 20 20 21 21 21 20 17 20 22 19 18 22 25 27 26 26 28 31 30 27 29 33 33 33 34 32 28 27 28 27 25 25 23 20 18 17 17 17 18 22 24 24 24 27 30 29 28 26 26 27 27 27 28 28 27 27
29 20 16 24 28 26 24 20 16 14 12 12 13 14 14 14 14 14 13 12 12 12 12 12 12 11 12 14 17 18 19 21 21 21 22 21 22 21 18 19 21 20 19 22 24 25 26 26 27 29 28 26 27 32 35 35 33 33 31 30 30 28 25 25 24 22 19 16 16 16 17 20 21 21 23 26 27 29 30 28 27 28 29 30 30 28 28 27
27 20 18 26 29 26 23 17 14 14 13 13 13 13 13 13 14 14 12 12 12 12 12 12 12 11 12 12 15 17 18 20 21 21 23 22 22 22 20 19 20 21 21 23 23 23 25 26 28 29 28 28 29 29 34 36 34 33 32 31 31 29 26 25 24 25 23 19 16 16 16 17 17 17 20 22 22 23 27 27 26 28 29 30 31 30 28 28
26 21 21 26 28 26 20 14 14 15 14 15 15 14 13 12 12 12 12 12 12 11 11 12 12 11 11 12 14 17 19 19 20 21 22 23 23 24 22 20 21 21 22 23 23 23 25 27 28 30 30 32 32 29 29 33 34 33 31 31 31 29 28 27 25 25 26 23 19 16 15 15 15 15 17 20 20 21 24 25 24 25 27 29 30 31 29 28
25 23 23 25 26 24 19 14 15 15 14 17 17 15 13 11 11 11 11 11 11 11 11 11 11 11 11 12 13 16 18 19 20 21 22 23 24 25 24 22 21 22 23 23 23 22 23 25 26 28 29 31 33 30 28 29 32 33 33 31 31 31 30 28 25 24 24 24 22 18 16 16 15 14 15 18 20 22 23 24 23 24 26 27 29 30 29 28
25 23 23 25 26 22 18 15 15 15 16 17 17 16 13 11 11 12 12 11 10 10 10 11 11 11 11 12 13 15 16 19 21 21 21 22 24 24 25 24 22 23 24 23 23 21 22 23 24 25 25 26 29 28 26 25 28 31 33 33 33 33 32 27 24 24 24 26 25 20 17 18 15 12 13 17 20 22 21 21 21 23 26 27 28 29 28 27
25 22 22 25 24 20 17 16 16 16 17 18 18 17 14 11 11 11 11 10 9 10 10 11 11 11 12 12 12 14 16 18 21 22 22 22 22 23 24 25 24 25 25 25 23 23 23 24 25 26 26 26 27 26 23 22 23 26 31 36 36 34 33 29 25 24 25 25 26 23 20 19 16 12 11 13 18 21 19 18 19 22 26 26 26 27 28 26
24 22 22 24 22 19 18 18 17 16 17 17 17 16 14 11 10 10 10 9 9 10 11 11 11 12 13 12 12 13 15 18 20 21 22 22 21 23 24 25 26 26 26 25 23 24 24 24 26 29 29 28 27 27 25 22 24 25 28 34 37 35 33 31 26 26 26 24 25 26 24 21 18 14 11 12 16 18 18 18 18 20 24 25 24 25 27 27
23 23 23 23 21 19 19 19 18 17 17 17 16 14 13 10 8 9 8 8 9 11 10 10 11 12 13 13 13 13 15 17 18 19 21 22 21 22 22 24 27 26 24 24 24 24 25 24 26 28 29 29 29 29 27 25 27 28 26 30 37 37 34 33 30 28 26 23 24 25 24 23 21 16 12 14 16 17 18 18 18 19 22 23 23 24 26 27
23 22 23 23 20 19 19 19 19 18 17 17 15 12 12 10 8 8 8 8 9 10 10 10 11 12 13 13 13 13 14 16 17 18 20 22 22 21 21 23 26 24 23 25 26 25 25 25 25 25 26 28 29 27 26 26 27 29 27 28 35 39 37 35 32 29 27 25 24 24 23 24 23 19 15 15 16 17 18 19 19 19 20 20 21 23 25 26
22 22 22 22 21 20 19 19 19 18 16 16 14 12 12 10 9 8 9 10 10 11 11 11 12 13 13 13 12 12 13 15 16 17 19 21 21 20 19 21 24 24 24 26 27 25 25 25 24 24 25 28 29 26 24 24 25 27 27 26 31 37 39 36 32 29 27 26 25 23 23 23 22 21 18 16 16 17 18 18 19 19 19 19 20 22 24 25
22 22 22 22 21 20 19 19 18 16 15 15 13 12 12 10 9 9 10 12 12 12 11 12 13 13 13 12 12 12 13 14 17 17 18 21 22 20 20 20 23 25 25 26 27 26 26 25 24 23 24 27 28 25 21 22 23 24 25 24 26 32 37 36 33 30 27 26 23 22 22 22 20 20 19 17 17 17 17 17 17 19 20 20 20 22 24 26
21 22 22 22 21 20 19 18 17 16 15 14 13 12 12 10 10 10 11 12 11 10 11 13 13 12 12 12 12 13 13 14 18 18 18 21 23 22 21 21 21 24 25 26 28 27 27 26 24 23 23 26 26 22 20 21 21 21 21 20 21 27 31 32 32 30 28 25 22 21 22 21 20 20 19 18 17 17 17 17 16 19 21 21 21 21 23 25
22 22 22 22 21 20 18 18 17 16 14 14 14 14 12 11 11 11 11 10 10 11 13 13 12 11 11 12 12 13 14 14 18 19 19 21 25 24 24 23 22 23 25 26 27 28 27 27 25 23 23 25 24 22 21 20 19 19 19 18 18 22 24 24 26 26 25 24 23 22 22 21 21 21 20 18 18 17 18 16 16 18 19 20 20 21 22 24
Wind_Direction
321 320 319 318 318 318 317 316 316 315 314 314 313 313 312 312 310 308 307 305 302 298 296 296 295 295 292 291 288 286 285 278 271 256 245 241 229 223 217 212 207 201 201 199 195 196 198 201 202 200 200 204 207 209 208 210 208 202 199 201 205 202 199 186 176 172 164 157 161 160 158 160 161 168 174 175 163 147 145 142 140 135 133 148 154 154 156 158
320 319 318 318 317 317 316 315 314 313 312 312 311 311 311 310 309 307 305 303 300 297 294 294 293 292 289 288 285 283 283 277 272 257 247 245 231 224 218 212 207 200 199 200 198 197 199 202 202 201 203 206 208 210 209 210 208 203 198 203 206 204 203 200 195 183 169 165 168 167 165 171 172 169 170 166 160 154 145 140 136 128 132 144 153 157 158 160
320 319 318 317 316 315 314 313 312 311 310 309 309 309 308 308 307 305 303 301 298 295 292 291 291 290 286 284 281 280 279 277 272 258 253 249 232 223 216 211 209 201 201 203 201 198 200 201 200 200 204 208 210 212 210 209 208 202 199 203 208 208 213 225 212 185 172 169 168 169 174 179 173 170 175 166 161 166 161 149 142 138 143 150 158 161 162 164
320 319 318 316 315 314 313 312 311 309 308 308 307 306 305 305 304 302 301 299 297 294 291 289 288 287 283 280 276 274 274 276 269 253 254 251 228 217 211 209 206 202 203 204 202 200 200 200 198 200 204 208 211 213 212 211 208 200 199 202 206 204 209 229 217 189 180 173 169 172 177 184 181 186 192 172 165 177 174 162 151 147 151 154 160 164 166 168
320 319 317 316 314 314 312 311 310 309 307 306 305 304 303 302 300 299 298 297 295 293 290 286 285 283 280 276 270 269 268 270 262 244 253 257 229 214 207 205 203 202 203 203 203 202 200 199 198 200 205 208 208 211 213 213 210 205 205 207 211 208 205 219 211 195 191 184 176 177 183 191 190 198 201 183 182 192 175 163 153 150 155 158 162 166 168 170
319 318 317 315 314 313 312 310 309 308 307 305 304 303 301 299 297 296 295 293 292 291 288 285 282 279 275 271 266 262 257 259 257 242 252 261 230 212 205 203 201 201 203 203 203 203 202 200 199 202 205 207 207 209 213 211 209 213 213 213 217 215 213 213 205 203 203 198 193 193 197 194 189 201 206 197 196 192 168 160 154 154 159 160 163 167 169 171
319 318 316 315 314 313 311 310 309 307 306 305 304 302 300 298 296 294 292 290 289 287 286 282 279 274 270 265 261 259 255 257 255 242 245 255 231 210 203 202 201 202 204 203 204 204 204 203 202 203 204 207 208 210 214 211 210 216 220 220 221 217 216 211 208 213 208 208 208 201 203 197 193 199 203 200 191 175 162 161 158 155 159 160 164 169 170 171
321 319 318 316 315 313 312 310 309 307 306 304 303 301 299 297 294 292 290 288 286 284 282 278 275 271 266 260 259 258 254 256 253 242 241 242 232 210 202 202 203 203 205 205 205 205 205 207 206 204 205 208 209 210 212 212 213 216 220 223 222 219 217 211 209 213 209 213 212 198 204 205 197 194 196 195 181 167 161 162 160 156 159 162 167 171 171 172
321 320 318 317 315 314 312 311 309 307 306 304 302 300 298 296 293 291 289 287 284 280 278 273 270 266 262 258 257 258 255 253 249 241 236 233 227 213 203 203 204 204 206 207 206 206 207 210 209 208 208 209 211 213 212 212 213 214 218 221 221 218 215 210 208 212 212 214 209 200 211 206 193 190 198 192 176 166 162 161 161 160 162 164 169 173 173 173
320 319 318 317 315 314 312 311 310 308 306 304 302 300 298 295 292 290 289 287 283 277 274 269 264 261 259 256 252 255 253 248 245 238 231 226 219 212 206 204 205 205 207 208 208 208 209 211 211 211 212 211 211 213 212 213 214 215 219 223 224 220 215 211 212 216 216 212 206 203 208 200 191 192 199 186 173 166 162 163 165 165 167 168 170 173 175 176
320 319 318 316 315 314 312 311 309 308 306 304 303 300 298 295 291 290 288 285 280 275 271 265 261 257 255 254 248 249 248 242 241 236 230 225 216 211 211 208 207 208 208 209 210 210 211 212 210 210 213 212 212 214 215 217 220 222 223 228 230 226 221 216 216 217 214 212 206 202 205 199 196 202 197 178 171 168 164 165 169 170 173 173 173 173 176 180
320 318 317 316 315 314 312 311 309 308 306 304 303 300 297 295 292 290 287 284 278 272 268 263 258 255 254 253 247 245 245 239 238 242 241 233 224 217 215 212 210 210 210 211 213 213 212 212 211 212 213 212 213 216 218 217 221 225 225 230 233 230 225 217 215 212 209 213 206 202 207 205 203 206 195 177 172 171 167 167 170 174 178 178 178 177 177 181
320 318 317 316 315 314 313 311 310 308 306 304 302 300 298 295 292 290 287 282 275 270 266 261 257 254 252 252 248 246 248 247 246 250 247 238 233 228 220 215 214 213 213 214 215 214 212 212 212 215 217 217 215 217 221 220 222 225 224 226 230 231 227 217 214 209 207 210 203 202 214 214 208 199 188 178 174 172 169 171 172 174 180 181 182 182 182 182
320 318 317 315 315 314 313 312 310 309 307 304 302 301 298 296 293 291 286 279 272 268 265 261 256 252 250 251 252 251 252 252 250 248 241 234 232 231 225 218 216 216 214 215 216 214 212 211 213 217 220 221 221 223 226 224 221 222 223 224 222 226 227 217 211 208 208 207 198 202 219 218 210 195 188 182 178 176 175 176 175 174 179 182 183 186 188 185
320 319 317 315 314 313 312 312 311 309 307 305 303 302 299 297 295 291 284 277 272 268 265 261 255 252 253 254 255 253 250 248 245 242 236 232 230 228 225 218 215 216 215 216 216 215 212 211 213 217 220 222 223 224 224 222 220 217 220 224 217 218 224 219 211 207 207 206 197 203 219 216 208 196 192 189 184 181 180 180 179 177 178 181 184 186 190 190
320 319 317 315 314 313 312 311 310 308 306 305 304 302 300 297 295 289 280 273 272 271 266 259 253 252 253 254 254 250 244 242 242 238 232 230 228 227 221 215 215 214 215 217 216 214 211 211 214 217 219 221 220 220 221 224 224 218 217 223 219 215 218 219 215 208 206 208 203 206 215 213 208 198 191 189 187 185 186 185 183 182 181 183 184 186 190 191
321 319 318 315 313 313 312 311 310 307 306 304 304 302 299 298 295 286 276 272 274 273 267 259 253 252 251 252 253 249 243 241 241 237 231 227 225 225 222 216 215 214 215 216 215 213 211 212 216 218 218 219 218 216 219 223 223 220 218 221 222 216 215 215 216 211 208 211 210 211 217 212 203 197 191 191 190 190 191 190 188 186 185 186 186 188 191 192
321 319 318 316 314 313 312 311 309 307 306 305 303 301 298 297 293 281 273 275 276 272 266 259 253 252 251 249 249 248 246 245 246 243 234 227 223 225 226 220 215 213 214 216 214 213 212 214 217 219 219 218 218 216 219 221 219 219 217 219 222 218 217 216 215 211 207 211 212 212 218 211 199 197 196 197 195 192 192 191 191 189 189 190 189 191 193 194
321 319 318 316 314 313 311 310 309 306 306 305 303 302 298 297 290 276 274 281 279 272 264 256 250 251 252 250 249 247 249 250 249 244 234 226 222 224 226 222 216 213 214 216 215 213 212 214 217 220 220 218 218 218 220 221 218 218 216 218 221 219 220 218 215 211 203 208 215 213 216 214 203 200 199 198 197 195 193 192 193 192 192 193 193 194 196 197
321 319 318 317 315 313 311 310 308 306 306 304 304 303 300 299 291 278 280 284 278 268 262 257 251 251 253 254 252 250 250 248 243 240 234 226 221 222 225 221 217 216 218 217 216 213 213 217 220 220 220 218 218 219 219 221 220 220 218 219 221 221 223 219 217 214 203 207 215 212 215 219 210 205 202 198 197 198 195 194 195 195 194 196 196 197 197 198
321 319 318 317 314 312 311 309 306 305 305 304 305 304 303 303 295 287 288 286 280 269 261 259 253 251 252 252 251 251 249 244 240 237 233 227 222 222 224 219 218 221 220 217 216 216 216 222 223 220 219 220 219 219 219 220 221 222 220 219 221 222 224 221 218 215 206 210 217 213 217 223 214 208 205 198 197 199 197 196 197 198 198 199 199 198 198 197
321 319 318 317 315 312 309 307 305 303 303 302 304 304 304 304 298 293 291 286 285 276 263 260 255 251 252 250 248 246 242 239 239 236 229 225 222 221 222 219 219 222 219 217 217 218 221 225 223 218 218 219 219 219 220 221 221 221 219 220 222 221 223 225 221 215 210 214 218 215 218 224 218 210 205 200 201 202 200 200 200 200 201 202 201 199 198 197
321 319 318 317 315 312 309 306 302 301 301 299 299 301 303 302 299 298 294 285 283 279 269 262 254 250 249 246 243 239 235 233 234 234 228 225 223 219 221 220 218 220 219 218 218 218 222 225 221 217 218 218 219 218 218 220 221 221 220 220 222 220 220 223 218 212 214 217 219 217 219 223 218 210 205 202 203 204 204 206 205 204 203 202 201 200 197 196
321 320 319 317 316 313 310 305 301 300 300 298 296 298 301 301 299 300 296 282 275 275 270 262 254 250 247 244 239 234 232 230 229 230 227 225 223 219 221 221 218 220 220 219 219 220 224 223 216 216 219 218 219 218 217 219 221 222 221 220 221 220 219 219 215 213 219 224 222 216 219 222 213 204 204 205 207 209 210 209 210 211 208 202 203 204 201 199
322 321 319 318 317 315 311 306 302 303 301 297 296 298 300 299 297 298 293 280 268 266 264 260 256 254 249 244 238 233 232 231 228 228 227 226 224 220 221 221 219 222 221 219 221 224 225 221 213 215 218 218 219 219 217 217 220 222 222 220 219 219 220 220 219 220 225 231 226 213 214 221 214 205 204 207 212 214 212 211 212 214 211 207 206 207 206 204
323 321 320 318 317 316 313 306 305 306 301 297 298 300 299 298 296 294 288 275 265 261 261 259 255 257 259 253 245 236 233 233 230 228 228 227 225 222 220 221 221 223 221 220 223 226 224 220 217 216 217 217 220 221 218 216 219 222 220 218 218 220 222 222 221 222 224 230 228 214 211 218 217 211 208 207 211 214 212 214 216 214 212 210 209 208 206 206
324 322 321 319 317 316 313 307 307 307 300 297 300 300 298 298 296 291 282 270 264 263 260 258 256 259 267 266 250 231 230 237 231 227 227 225 225 224 222 222 222 223 220 220 224 225 220 218 219 219 217 217 219 220 218 215 219 223 218 217 219 220 222 223 223 224 225 229 234 222 215 216 218 216 212 209 210 212 212 214 216 215 214 213 211 207 206 206
325 323 322 320 316 313 310 307 308 305 300 299 299 299 298 298 295 286 276 268 266 264 258 257 259 259 269 273 250 226 231 240 232 228 227 224 222 223 224 222 221 223 220 221 225 223 218 218 219 219 219 220 219 219 216 215 220 221 215 216 219 220 222 223 225 227 228 232 237 229 219 221 224 219 214 212 211 212 212 214 215 216 217 215 212 209 207 206
325 322 321 319 315 311 308 306 306 303 301 300 298 298 298 296 289 279 271 267 266 265 260 259 260 260 269 270 246 231 238 238 233 230 225 221 220 221 224 223 221 224 223 224 226 223 220 220 219 219 221 221 221 219 216 217 220 218 214 216 218 219 222 222 224 226 227 230 232 228 221 224 229 221 213 212 213 213 214 215 216 216 217 216 212 210 209 207
325 322 320 319 315 311 309 307 305 303 302 301 299 300 298 290 281 275 271 266 267 270 265 261 261 262 268 262 244 241 240 233 237 237 225 220 220 220 224 224 222 223 225 226 227 225 223 221 219 220 222 220 219 219 217 217 218 215 215 217 217 218 219 221 222 221 225 229 228 226 223 223 230 225 215 213 214 214 216 217 217 217 217 216 214 212 211 208
326 323 320 319 316 314 312 309 309 307 305 303 302 302 296 284 275 270 269 267 268 272 268 263 261 259 265 263 248 245 240 231 235 235 225 221 219 218 220 222 221 222 224 225 226 225 224 222 220 220 220 218 217 218 217 216 215 213 213 214 216 219 219 221 220 217 222 227 226 223 222 223 227 226 220 218 217 215 216 217 217 217 216 216 217 214 211 209
328 325 321 320 317 315 314 310 312 312 308 307 306 302 292 282 277 271 272 272 267 271 274 269 262 255 261 259 246 247 243 231 230 229 225 225 222 218 217 218 219 220 223 224 225 224 222 222 221 220 219 216 215 216 215 214 213 212 211 209 211 213 215 217 216 216 221 225 224 219 219 226 229 227 221 219 219 219 219 219 218 217 215 214 216 214 212 210
330 327 322 321 318 316 314 312 313 313 312 312 309 301 291 283 281 278 278 275 269 272 276 272 263 257 258 253 245 250 239 227 230 229 226 228 224 219 219 219 219 221 224 223 223 224 223 222 220 219 219 214 214 214 213 212 211 211 210 208 207 208 212 216 216 219 222 224 224 219 220 229 231 230 224 217 219 222 222 221 217 214 213 213 214 214 212 210
331 327 322 320 317 314 312 311 312 313 313 316 311 303 300 291 285 285 282 277 275 276 276 275 268 257 251 245 244 247 233 226 234 232 226 225 220 218 219 219 220 225 227 224 222 222 222 221 218 217 217 213 214 215 211 211 211 212 210 208 210 211 212 216 218 220 222 224 223 220 224 228 226 229 226 219 220 220 220 220 216 214 214 212 213 212 211 210
331 328 322 319 319 316 314 313 313 313 314 316 311 304 302 292 286 288 286 283 282 282 280 279 271 256 246 241 240 241 231 231 239 233 224 222 220 219 218 215 217 222 222 221 222 222 222 222 218 217 217 214 215 214 210 209 211 213 209 209 214 213 211 216 221 221 219 221 222 220 224 227 226 231 229 222 224 221 217 216 215 216 216 214 213 211 210 210
333 330 325 322 322 320 318 315 314 313 311 311 308 301 294 288 286 286 287 289 288 286 286 283 273 257 247 242 240 242 237 233 236 230 225 223 220 218 216 214 215 216 215 218 220 220 223 222 217 216 217 215 215 213 210 210 210 210 209 212 214 211 211 217 225 224 216 219 225 223 226 231 230 232 227 221 224 222 215 214 214 216 217 215 214 210 209 210
338 336 332 329 329 327 321 315 311 308 306 306 301 293 288 284 285 284 286 293 290 286 287 284 277 266 254 244 241 245 241 232 230 229 227 225 219 217 217 216 215 215 218 222 219 218 225 225 218 216 217 215 214 213 213 211 209 208 211 212 210 209 214 217 220 223 218 222 229 227 228 231 229 230 228 222 221 222 218 215 215 216 216 216 215 212 211 212
344 341 339 340 339 336 331 323 314 307 302 301 294 289 287 282 283 284 284 290 290 287 285 280 277 274 262 249 243 245 238 230 229 228 227 224 218 216 219 219 217 219 226 226 219 218 226 225 219 215 215 214 211 212 214 213 210 210 212 210 206 208 212 212 215 219 217 221 229 230 230 230 228 229 229 224 222 223 222 218 218 217 216 217 215 213 212 213
349 346 345 348 346 343 341 336 329 322 310 301 293 287 285 281 284 290 286 284 285 285 284 279 277 277 267 253 247 243 234 229 229 226 224 223 220 218 219 220 222 225 229 226 221 222 224 221 218 214 213 215 211 209 212 212 210 210 211 209 209 211 212 211 215 216 215 220 225 228 230 231 230 228 228 228 225 224 223 222 221 220 219 217 216 213 212 212
350 346 339 346 346 341 340 338 337 339 329 315 301 288 286 282 283 290 289 285 282 279 279 278 279 279 271 259 248 240 233 229 228 226 225 225 224 222 217 219 226 230 229 223 221 223 221 218 218 214 212 215 212 209 210 210 209 208 209 208 208 211 211 212 217 216 213 218 220 221 229 232 231 226 224 227 226 223 224 223 223 223 220 217 215 214 212 212
348 342 334 343 346 342 341 339 336 338 334 328 317 298 291 286 281 284 287 289 284 275 274 278 281 279 273 264 249 239 235 230 226 226 227 225 223 221 221 226 231 233 229 221 219 222 222 222 220 215 214 215 214 212 211 211 210 210 210 210 208 208 207 209 218 218 214 217 216 216 225 232 229 220 219 222 221 220 220 219 221 222 219 217 215 214 212 211
347 341 334 341 344 342 343 339 333 334 332 332 328 311 297 288 284 285 285 286 283 276 277 279 280 280 275 269 256 243 239 233 225 224 227 228 226 224 228 235 235 232 229 223 221 225 225 223 220 216 216 217 217 216 214 213 214 213 212 213 211 210 208 209 215 216 214 218 220 218 223 230 226 216 216 220 220 218 216 215 216 217 215 213 213 212 210 208
347 342 337 340 341 341 342 338 331 330 328 330 330 321 306 290 287 291 289 287 281 276 281 281 280 282 278 273 262 249 243 236 226 223 228 230 228 228 231 235 235 230 226 222 221 224 222 219 219 219 217 217 217 217 215 214 213 214 214 212 212 212 212 213 216 215 214 218 220 221 225 228 226 219 219 222 222 220 217 214 212 212 211 209 208 208 207 205
345 342 340 342 343 343 343 339 333 329 328 331 330 325 315 295 287 289 287 287 282 276 280 281 281 283 282 278 266 252 243 234 228 227 228 229 229 230 232 234 235 228 223 222 222 221 218 217 218 217 213 212 213 212 214 213 212 213 213 211 212 213 211 213 215 214 216 218 216 217 223 225 225 229 232 229 223 219 214 209 205 206 207 207 207 207 205 204
344 343 343 344 347 348 346 340 336 332 332 333 331 327 317 296 285 287 285 284 285 282 278 278 284 287 287 283 272 258 243 233 231 230 228 231 231 230 231 234 233 227 224 226 225 219 217 217 215 211 207 207 207 206 208 212 214 214 213 212 211 210 209 210 211 212 216 217 216 216 221 224 227 239 248 231 212 207 203 200 200 201 202 204 206 207 205 203
344 345 345 346 348 350 348 343 339 336 333 332 330 329 323 302 283 289 291 287 294 296 283 279 288 290 289 288 280 267 251 239 236 232 229 233 231 227 231 232 229 228 226 225 224 217 215 215 212 210 211 212 213 214 214 217 218 216 217 215 211 208 209 209 209 212 213 213 216 218 220 224 229 239 247 222 198 195 195 194 197 197 198 200 202 203 202 201
345 345 347 347 347 347 346 344 342 338 334 334 333 331 330 316 289 288 290 284 296 301 290 285 291 291 291 291 282 269 255 244 240 235 232 232 230 228 231 229 225 225 223 221 221 216 214 215 211 212 217 218 218 220 222 223 221 219 222 219 210 206 207 208 210 213 210 209 217 220 218 221 225 229 231 213 196 193 195 194 195 195 196 198 198 198 198 199
347 346 347 348 347 346 344 341 340 337 336 340 340 336 337 329 306 296 290 285 296 301 294 291 296 297 294 289 279 268 258 246 239 236 232 231 230 228 229 226 221 220 221 219 217 214 213 214 212 216 223 220 216 217 219 220 219 218 221 219 210 206 205 208 211 211 209 210 216 218 216 218 219 219 222 215 203 198 196 193 195 196 196 198 197 196 197 197
347 346 347 348 348 345 340 335 333 335 340 344 341 340 343 337 318 304 294 291 293 296 298 296 298 302 299 289 278 269 262 248 238 236 232 231 229 223 223 223 217 216 219 217 215 213 212 213 214 219 223 218 213 213 215 216 217 217 217 215 210 206 206 208 210 210 211 214 216 214 214 217 216 214 216 213 203 198 195 193 196 198 198 199 197 195 196 197
347 348 347 348 347 343 339 337 337 339 342 342 340 340 340 335 323 310 301 298 294 292 297 298 296 297 296 292 281 269 264 252 240 239 236 232 227 218 216 219 217 217 218 214 212 212 211 213 216 217 216 212 209 211 214 215 216 216 213 209 208 207 207 209 210 210 212 216 215 212 212 217 217 212 211 209 201 197 197 197 200 201 199 198 197 195 194 194
346 347 347 347 347 346 343 342 342 341 341 342 343 341 336 331 324 312 303 300 299 296 297 297 296 294 291 292 285 272 267 257 244 243 242 235 228 219 213 215 217 218 216 212 212 212 212 214 214 212 212 209 206 209 215 216 215 212 206 203 207 208 206 208 210 210 212 214 213 210 212 217 214 207 207 209 205 203 203 203 204 203 200 198 197 195 192 192
345 346 348 348 347 347 346 346 345 344 343 343 343 342 335 326 321 316 307 304 305 305 299 295 295 295 290 289 286 276 271 263 250 246 243 236 230 224 217 215 215 215 213 213 213 212 212 213 213 210 209 208 207 210 214 210 204 201 199 203 209 208 203 203 208 211 212 212 210 211 214 216 210 202 202 205 205 205 207 207 205 201 199 197 195 191 189 190